Location: Long Geng
(2.6167°N, 114.1333°E)
Time: 19:39:50
(UTC+00:00)

Ariane 44LP R/B - Pass Details

Date: 14 May 2021
Orbit: 499 x 17810 km, 3.6° (Epoch: 16 June)

Event Time Altitude Azimuth Distance (km) Brightness Sun altitude
Exits shadow 20:56:13 36° 262° (W) 1,115 4.3 -18.8°
Maximum altitude 20:57:58 78° 181° (S) 899 4.2 -18.4°
Drops below altitude 10° 21:08:49 10° 96° (E) 5,295 9.3 -15.9°
Sets 21:17:16 0° 95° (E) 8,542 10.6 -13.9°
